Regional Weather Roundup
Issued by NWS

Home | Current Version | Previous Version | Graphics & Text | Print | Product List | Glossary On
Versions: 1 2 3 4 5 6 7 8 9 10 11 12 13 14 15 16 17 18 19 20 21 22 23 24 25 26 27 28 29 30 31 32 33 34 35 36 37 38 39 40 41 42 43 44 45 46 47 48 49 50
000
ASUS45 KTFX 060319
RWRMT
MONTANA HOURLY WEATHER ROUNDUP
NATIONAL WEATHER SERVICE GREAT FALLS MT
819 PM MST THU MAR 5 2015

NOTE: "FAIR" INDICATES FEW OR NO CLOUDS BELOW 12000 FEET WITH NO
SIGNIFICANT WEATHER AND/OR OBSTRUCTIONS TO VISIBILITY.

* THESE STATIONS ARE NOT UNDER NWS QUALITY CONTROL. THEY DO NOT
   REPORT WEATHER SUCH AS PRECIPITATION OR FOG.

MTZ001>007-043-060400-
WEST OF THE DIVIDE
CITY           SKY/WX    TMP DP  RH WIND       PRES   REMARKS
KALISPELL      PTCLDY    28  19  69 CALM      30.26R
MISSOULA       CLEAR     34  18  52 N6        30.29R WCI  29
BUTTE          MOCLDY    37  12  36 W7        30.24R WCI  32
MULLAN PASS    MOCLDY    30  14  51 W5        30.25R WCI  25
* ANACONDA     PTCLDY    39  10  30 S3         N/A
* ESSEX        N/A       27  17  66 N/A        N/A
* EUREKA APT   CLEAR     30  18  61 CALM      30.27R
* HAMILTON APT PTCLDY    48  12  23 N15       30.27R
* LIBBY APT    PTCLDY    34  19  54 S3        30.29R
* LINCOLN      N/A       39  11  31 SW5G13     N/A   WCI  35
* LOOKOUT PASS N/A       34  19  54 VRB2       N/A
* POLSON       N/A       34  12  40 SE1        N/A
* RONAN APT    PTCLDY    32  27  82 N/A        N/A
* SEELEY LAKE  N/A       28  14  56 NE1        N/A
* THOMP F APT  PTCLDY    27  12  53 NE4        N/A
$$

MTZ008-052>055-060400-
SOUTHWEST MONTANA
CITY           SKY/WX    TMP DP  RH WIND       PRES   REMARKS
BOZEMAN        CLOUDY    36  19  50 CALM      30.23R
DILLON         CLOUDY    43   9  25 W13       30.24R
* W YELLOWSTON PTCLDY    25  14  63 SW2G11     N/A
* THREE FORKS  MOCLDY    39   9  29 N/A        N/A
* BOULDER HILL N/A       35   7  31 SW2        N/A
* MONIDA PASS  N/A       25  12  58 SE13       N/A   WCI  13
* RAYNOLDS PAS N/A       23   5  46 SE12       N/A   WCI  11
* WHITEHALL    N/A       42   9  26 NW6        N/A
* WISE RIVER   N/A       37   7  28 SW7G18     N/A   WCI  32
$$

MTZ009>010-012-014-046-048-049-054-060400-
EAST SLOPES AND CENTRAL MONTANA
CITY           SKY/WX    TMP DP  RH WIND       PRES   REMARKS
CUT BANK       MOCLDY    37  14  39 W26G36    30.07S WCI  25
GREAT FALLS    MOCLDY    37  14  39 W12       30.11R WCI  29
HELENA         CLOUDY    37  16  42 W6        30.20R WCI  32
MALMSTROM AFB  MOCLDY    43  12  28 W13       30.12R
* CONRAD       MOCLDY    39  18  43 CALM       N/A
* DEARBORN     N/A       47  13  25 S4G9       N/A
* EAST GLACIER N/A       36  11  35 W29G44     N/A   WCI  23
* MONARCH      N/A       36   8  31 SW12G20    N/A   WCI  28
* PENDROY      N/A       39  15  37 W21G27     N/A   WCI  29
* ROGERS PASS  N/A       36   9  32 SE3G17     N/A
* SWEET GRASS  N/A       37  20  50 W14G19     N/A   WCI  28
* WHITE SULPH  N/A       38   9  30 W3G19      N/A
$$

MTZ011-013-016-021-035-040-045-047-050-051-060400-
NORTH CENTRAL MONTANA
CITY           SKY/WX    TMP DP  RH WIND       PRES   REMARKS
HAVRE          MOCLDY    32  18  56 W5        30.08R WCI  27
LEWISTOWN      PTCLDY    37  23  57 W8        30.11R WCI  31
* N BAR RANCH  CLEAR     34  16  48 SW5       30.11R WCI  29
* CHINOOK      MOCLDY    30  18  61 CALM      30.08S
* FORT BENTON  PTCLDY    39  12  33 SW8       30.12R WCI  33
* MALTA APT    MOCLDY    34  19  54 N/A        N/A
* CHESTER      N/A       39  16  39 NW5G10     N/A   WCI  35
* DENTON       N/A       36  19  50 SW9        N/A   WCI  29
* GEYSER       N/A       40  14  35 SW20       N/A   WCI  30
* JUDITH GAP   N/A       36  18  48 SW4        N/A
* LOMA         N/A       43  13  29 SW9G16     N/A
$$

MTZ017>020-022>027-061-062-060400-
NORTHEAST MONTANA
CITY           SKY/WX    TMP DP  RH WIND       PRES   REMARKS
GLASGOW        PTCLDY    37  18  46 NW3       30.05R
GLENDIVE       MOCLDY    28  16  61 W7        30.06F WCI  21
JORDAN         PTCLDY    28  21  75 W7        30.07S WCI  21
SIDNEY         CLOUDY    37  18  46 W7        30.06S WCI  32
WOLF POINT     MOCLDY    37  21  52 W5        30.05R WCI  33
* BEAVER HILL  N/A       33  13  44 SW11       N/A   WCI  24
* CIRCLE       N/A       37  19  48 W1         N/A
* LINDSAY DVD  N/A       38  17  42 W12        N/A   WCI  30
* NAVAJO       N/A       32  21  64 NW11       N/A   WCI  23
* PLENTYWOOD A PTCLDY    30  19  64 NW10      30.01R WCI  21
* POPLAR APT   MOCLDY    39  18  43 SW5       30.04S WCI  35
* SACO         N/A       36  19  50 W4G9       N/A
* SCOBEY APT   PTCLDY    34  16  48 W5         N/A   WCI  29
$$

MTZ028>042-056>058-060400-
SOUTHCENTRAL AND SOUTHEAST MONTANA
CITY           SKY/WX    TMP DP  RH WIND       PRES   REMARKS
BAKER          CLEAR     30  16  56 W5        30.07F WCI  25
BILLINGS       CLOUDY    41  16  36 SW18      30.14R
LIVINGSTON     CLOUDY    45  12  26 W16G24    30.18R
MILES CITY     PTCLDY    34  14  44 N/A       30.09S
* BIG TIMBER A CLOUDY    43  12  28 W17G22    30.15R
* FORSYTH APT  MOCLDY    43  14  31 S3        30.11S
* LAUREL APT   CLOUDY    39  16  39 N/A        N/A
* ROUNDUP APT  CLOUDY    45  10  24 W5         N/A
* ALZADA       N/A       31  19  61 W2         N/A
* HYSHAM       N/A       41   8  25 W3         N/A
* LAME DEER    N/A       36  17  46 W8         N/A   WCI  30
* REED POINT   N/A       44  13  28 SW4        N/A
* ROSCOE HILL  N/A       38   6  26 E6         N/A   WCI  33
$$

REGIONAL REPORTS...DAKOTAS
CITY           SKY/WX    TMP DP  RH WIND       PRES   REMARKS
WILLISTON      CLOUDY    34  21  59 W8        30.02S WCI  27
DICKINSON      PTCLDY    23  10  57 W7        30.02F WCI  15
BEACH          CLOUDY    27  16  63 SW8       30.05F WCI  19
CROSBY         CLEAR     28  21  75 W13       30.00R WCI  17
TIOGA          FAIR      19  16  88 W9        30.01S WCI   8
WATFORD CITY   CLOUDY    28  19  69 SW8       29.99F WCI  20
BISMARCK       CLEAR     25  12  58 SW3       30.06S
GRAND FORKS    PTCLDY    18   9  68 S15       30.04F WCI   4
FARGO          CLEAR     18   7  62 S16       30.12F WCI   3
BUFFALO SD     PTCLDY    30  12  47 W7        30.03S WCI  23
RAPID CITY     PTCLDY    32  16  52 W5        30.14R WCI  27
$$

REGIONAL REPORTS...WYOMING/IDAHO/WASHINGTON
CITY           SKY/WX    TMP DP  RH WIND       PRES   REMARKS
GILLETTE       PTCLDY    34  18  52 W9        30.14F WCI  27
SHERIDAN       MOCLDY    30  19  64 S8        30.15R WCI  22
CODY           CLOUDY    43   9  25 W16G32    30.17S
YELLOWSTONE LA PTCLDY    25   9  50 VRB3      30.32S
SALMON         MOCLDY    34  12  40 S6        30.29R WCI  29
MULLAN PASS    MOCLDY    30  14  51 W5        30.25S WCI  25
SAND POINT     PTCLDY    34  21  59 CALM      30.31R
SPOKANE        MOCLDY    43  21  42 SW5       30.29S
$$

REGIONAL REPORTS...ALBERTA
CITY           SKY/WX    TMP DP  RH WIND       PRES   REMARKS
CALGARY        PTCLDY    43  16  34 W16G22    29.99S
LETHBRIDGE     MOCLDY    43  18  37 W26G36    30.03S
MEDICINE HAT   CLOUDY    36  27  70 SW3       30.05S
EDMONTON       MOCLDY    28  21  75 S10       29.93F WCI  19
WATERTON GATE  N/A       37  16  42 SW24G38    N/A   WCI  26
CARDSTON       N/A       41  19  41 W20G30     N/A
MILK RIVER     N/A       36  25  64 W14        N/A   WCI  27
$$

REGIONAL REPORTS...SASKATCHEWAN
CITY           SKY/WX    TMP DP  RH WIND       PRES   REMARKS
SWIFT CURRENT  FAIR      27  19  72 W8        30.02R WCI  19
REGINA         N/A       14  12  92 NW12      29.99R
ASSINIBOIA     N/A       27  19  72 W12        N/A   WCI  16
CORONACH       N/A       27  21  78 NW7        N/A   WCI  19

$$




USA.gov is the U.S. government's official web portal to all federal, state and local government web resources and services.